Weather History for Rome, OR

Change the Weather History Date:

Tuesday, December 3, 2013

  Actual Average Record
Temperature  
Mean Temperature 19 °F 30 °F  
Max Temperature 32 °F 41 °F 63 °F (2007)
Min Temperature 5 °F 19 °F 5 °F (2013)
Degree Days  
Heating Degree Days 46 35  
Month to date heating degree days 91 104  
Since 1 July heating degree days 1609 1717  
Cooling Degree Days 0 0  
Month to date cooling degree days 0 0  
Year to date cooling degree days 878 507  
Moisture  
Dew Point 14 °F    
Average Humidity 66    
Maximum Humidity 92    
Minimum Humidity 39    
Precipitation  
Precipitation 0.03 in 0.02 in 0.58 in (1950)
Month to date precipitation 0.03 0.06  
Year to date precipitation 5.17 8.16  
Sea Level Pressure  
Sea Level Pressure 29.92 in    
Wind  
Wind Speed 8 mph (North)    
Max Wind Speed 17 mph    
Max Gust Speed 22 mph    
T = Trace of Precipitation, MM = Missing Value Source: NWS Daily Summary

Daily Weather History Graph

Daily Weather History Graph

Search for Another Location

Airport:

Trip Planner

Search our weather history database for the weather conditions in past years. The results will help you decide how hot, cold, wet, or windy it might be!

Date:

Astronomy

Dec. 03, 2013 Rise Set
Actual Time 7:04 AM PST 4:18 PM PST
Civil Twilight 6:32 AM PST 4:50 PM PST
Nautical Twilight 5:57 AM PST 5:25 PM PST
Astronomical Twilight 5:23 AM PST 5:59 PM PST
Moon 7:37 AM PST (12/3) 5:27 PM PST (12/3)
Length of Visible Light 10h 17m
Length of Day
9h 14m
New Moon, 1% of the Moon is Illuminated
Dec 3
New Moon
Dec 9
First Quarter
Dec 17
Full
Dec 25
Last Quarter
Jan 1
New

Hourly Weather History & Observations

Time (PST) Temp. Windchill Dew Point Humidity Pressure Visibility Wind Dir Wind Speed Gust Speed Precip Events Conditions
12:52 AM 21.0 °F 11.4 °F 12.0 °F 68% 29.84 in - SSE 8.1 mph - N/A   Unknown
1:52 AM 25.0 °F - 12.9 °F 60% 29.84 in - Calm Calm - N/A   Unknown
2:52 AM 24.1 °F 16.0 °F 17.1 °F 75% 29.84 in - NW 6.9 mph - N/A   Unknown
3:52 AM 24.1 °F 14.4 °F 17.1 °F 75% 29.85 in - NNW 9.2 mph - N/A   Unknown
4:52 AM 21.9 °F 17.2 °F 16.0 °F 78% 29.89 in - NW 3.5 mph - N/A   Unknown
6:52 AM 24.1 °F - 14.0 °F 65% 29.91 in - Calm Calm - N/A   Unknown
7:52 AM 24.1 °F 19.7 °F 17.1 °F 75% 29.93 in - East 3.5 mph - N/A   Unknown
8:52 AM 26.1 °F 18.4 °F 16.0 °F 66% 29.92 in - NW 6.9 mph - N/A   Unknown
9:52 AM 30.0 °F 19.1 °F 16.0 °F 56% 29.91 in - WNW 15.0 mph 19.6 mph N/A   Unknown
10:52 AM 28.9 °F 18.2 °F 12.0 °F 49% 29.91 in - NNW 13.8 mph - N/A   Unknown
11:52 AM 30.0 °F 20.0 °F 10.0 °F 43% 29.89 in - NNW 12.7 mph - N/A   Unknown
12:52 PM 30.0 °F 21.1 °F 9.0 °F 41% 29.89 in - NW 10.4 mph - N/A   Unknown
1:52 PM 28.9 °F 18.2 °F 9.0 °F 43% 29.87 in - North 13.8 mph - N/A   Unknown
2:52 PM 27.0 °F 13.9 °F 18.0 °F 69% 29.89 in - North 18.4 mph - N/A   Unknown
3:52 PM 24.1 °F 15.2 °F 19.9 °F 84% 29.92 in - NE 8.1 mph - N/A   Unknown
4:52 PM 24.1 °F 16.0 °F 19.9 °F 84% 29.94 in - NE 6.9 mph - N/A   Unknown
5:52 PM 23.0 °F 10.1 °F 19.9 °F 88% 29.94 in - NNW 15.0 mph - 0.01 in   Unknown
6:52 PM 21.9 °F 9.8 °F 19.0 °F 89% 29.96 in - North 12.7 mph 19.6 mph 0.01 in   Unknown
7:52 PM 19.9 °F 9.3 °F 17.1 °F 89% 29.98 in - North 9.2 mph - 0.01 in   Unknown
8:52 PM 16.0 °F 6.3 °F 10.9 °F 81% 30.01 in - North 6.9 mph - N/A   Unknown
9:52 PM 15.1 °F - 9.0 °F 77% 30.01 in - Calm Calm - N/A   Unknown
10:52 PM 10.9 °F - 7.0 °F 84% 30.03 in - Calm Calm - N/A   Unknown
11:52 PM 7.0 °F -6.6 °F 1.9 °F 80% 30.05 in - SE 9.2 mph - N/A   Unknown